ARIANE 5 R/B, 33057

Orbit data source: Space-Track

ARIANE 5 R/B, 33057 is space debris in HEO originally from a launch on Thu, 12 Jun 2008 UTC launched from the French Guiana (FRGUI). Debris objects in space refer to the collection of defunct objects orbiting the Earth. Examples of debris include non-operational satellites, rocket bodies, and fragments generated from explosions, collisions, or faulty payload assembly.

Loading next visibility...
Identifier
33057, 2008-030C
Orbit
HEO
Last TLE update
18 hours ago
Origin
Manufacturer
EADS/LV
Mission
Spacecraft
Bus & Motor
ESC-A, Unknown motor
Mass
~5,000 kg wet, ~5,000 kg dry
Launch date (UTC)
2008-06-12 (17 years ago)
Launch vehicle
Unknown
Launch site
French Guiana (FRGUI)
Object type
Payload
Rocket body
Debris
Shape & HBR
Cyl + 1 Nozzle, 7 m
Radar Cross Section
41.627 m², Large (>1 m²)

Expand to show TLE details & history

TLE from 18 hours ago
0 ARIANE 5 R/B
1 33057U 08030C   25192.19895974  .00012721  00000-0  19019-2 0  9995
2 33057   1.3214 162.7016 7060467 303.1591   7.8552  2.57632115150382
Epoch: 2025-07-11T04:46Z
TLE epoch observation values (Epoch: 2025-07-11T04:46:30.121Z)
Latitude
-0.00002°
Longitude
161.02852°
Altitude
1,683.956 km
Speed
9.007 km/s
True Right ascension
10h 48m 02s
True Declination
0° 00' 00"
Sunlit
Object was in daylight at epoch
Visualization orbit readout
Latitude
-0.96564°
Longitude
114.23233°
Altitude
239.11 km
Speed
10.135 km/s
Apparent Right ascension
04h 37m 17s
Apparent Declination
-35° 46' 57"
Sunlit
Object is in daylight
Visualization observer readout
Local Sidereal Time
11:33:50
Azimuth
247.781° W
Elevation
-31.812°
Doppler factor
1
Orbital elements
Apogee altitude
31,977.825 km
Perigee altitude
230.628 km
Semi-major axis
22,482.364 km
Eccentricity
0.70605
Inclination
1.3214°
RAAN
162.7016°
Arg. of periapsis
303.1591°
True anomaly
Unknown
Mean anomaly
7.8552°
Eccentric anomaly
Unknown
Mean motion
0.64384 °/min
Orbital period
559.14 mins
BSTAR
0.0019019
Loading maneuver chart data...
Loading SW <> Apogee altitude chart data...
Loading historical data...
Loading historical data...
Loading historical data...
Loading historical data...
Loading historical data...
Loading historical data...
Loading historical data...

ARIANE 5 R/B Visibility forecast

Observer location: undefined°, undefined°

Span
Click to sort rows by Start time (UTC) header in descending order
Start Az.
Max El. time (UTC)
Max El. Az.
Max El.
End time (UTC)
End Az.
489 mins2025-07-11 23:31:51.749Z170.014° S2025-07-12 05:46:51.749Z132.925° SE27.055°2025-07-12 07:40:51.749Z121.325° SE
|